Location: Haliburton Scout Reserve
(45.0900°N, 78.3200°W)
Time: 18:39:16
(UTC-04:00)

TIGRISAT - Visible Passes

Search period start: 28 May 2024 00:00
Search period end: 07 June 2024 00:00
Orbit: 594 x 672 km, 97.7° (Epoch: 28 May)

Date Brightness Start Highest point End Pass type
(mag) Time Alt. Az. Time Alt. Az. Time Alt. Az.
28 May ? 03:44:39 10° E 03:46:51 14° ENE 03:49:04 10° NNE visible
29 May ? 04:04:38 10° ESE 04:07:53 22° ENE 04:11:10 10° NNE visible
30 May ? 04:25:09 10° SE 04:28:58 35° ENE 04:32:51 10° N visible
31 May ? 04:45:59 10° SSE 04:50:07 58° ENE 04:54:21 10° N visible
01 Jun ? 03:34:20 10° ENE 03:35:38 11° ENE 03:36:57 10° NE visible
02 Jun ? 03:53:46 10° ESE 03:56:36 18° ENE 03:59:30 10° NNE visible
03 Jun ? 04:14:03 10° SE 04:17:39 27° ENE 04:21:19 10° N visible
04 Jun ? 04:34:43 10° SE 04:38:45 44° ENE 04:42:54 10° N visible
06 Jun ? 03:43:00 10° E 03:45:19 14° ENE 03:47:38 10° NNE visible
